Harrison, AR

12:40 AM CST on November 25, 2017 (GMT -0600)
Boone County

Weather History for KHRO - December, 2013

Change the Weather History Date:

Monday, December 30, 2013

  Actual Average Record
Temperature  
Mean Temperature 27 °F 36 °F  
Max Temperature 39 °F 46 °F 75 °F (1951)
Min Temperature 14 °F 26 °F -5 °F (1983)
Degree Days  
Heating Degree Days 38 29  
Month to date heating degree days 854 806  
Since 1 July heating degree days 1667 1570  
Cooling Degree Days 0 0  
Month to date cooling degree days 0 0  
Year to date cooling degree days 1414 1416  
Moisture  
Dew Point 15 °F    
Average Humidity 66    
Maximum Humidity 88    
Minimum Humidity 44    
Precipitation  
Precipitation 0.00 in 0.09 in 1.40 in (1932)
Month to date precipitation 3.75 3.11  
Year to date precipitation 45.26 44.05  
Snow  
Snow 0.00 in 0.10 in 7.00 in (1969)
Month to date snowfall 9.0 1.2  
Since 1 July snowfall 9.0 1.7  
Snow Depth 0.00 in    
Sea Level Pressure  
Sea Level Pressure 30.29 in    
Wind  
Wind Speed 3 mph (WSW)    
Max Wind Speed 13 mph    
Max Gust Speed 18 mph    
Visibility 10 miles    
Events      
T = Trace of Precipitation, MM = Missing Value Source: NWS Daily Summary

Daily Weather History Graph

Daily Weather History Graph

Search for Another Location

Airport or City:

Trip Planner

Search our weather history database for the weather conditions in past years. The results will help you decide how hot, cold, wet, or windy it might be!

Date:

Astronomy

Dec. 30, 2013 Rise Set
Actual Time 7:23 AM CST 5:07 PM CST
Civil Twilight 6:54 AM CST 5:35 PM CST
Nautical Twilight 6:22 AM CST 6:07 PM CST
Astronomical Twilight 5:51 AM CST 6:39 PM CST
Moon 5:15 AM CST (12/30) 3:39 PM CST (12/30)
Length of Visible Light 10h 40m
Length of Day
9h 43m
Waning Crescent, 4% of the Moon is Illuminated
Dec 30
Waning Crescent
Jan 1
New
Jan 7
First Quarter
Jan 15
Full
Jan 23
Last Quarter

Hourly Weather History & Observations

Time (CST) Temp. Windchill Dew Point Humidity Pressure Visibility Wind Dir Wind Speed Gust Speed Precip Events Conditions
12:53 AM 21.0 °F 16.2 °F 12.9 °F 71% 30.26 in 10.0 mi NNW 3.5 mph - N/A   Clear
1:53 AM 19.9 °F - 14.0 °F 78% 30.27 in 10.0 mi Calm Calm - N/A   Partly Cloudy
2:53 AM 18.0 °F - 12.9 °F 81% 30.28 in 10.0 mi Calm Calm - N/A   Clear
3:53 AM 18.0 °F 12.7 °F 12.0 °F 78% 30.27 in 10.0 mi NNW 3.5 mph - N/A   Clear
4:53 AM 16.0 °F - 12.0 °F 84% 30.28 in 10.0 mi Calm Calm - N/A   Clear
5:53 AM 16.0 °F - 12.0 °F 84% 30.27 in 10.0 mi Calm Calm - N/A   Partly Cloudy
6:53 AM 15.1 °F - 10.9 °F 84% 30.28 in 10.0 mi Calm Calm - N/A   Clear
7:53 AM 15.1 °F - 10.9 °F 84% 30.32 in 10.0 mi Calm Calm - N/A   Clear
8:53 AM 19.0 °F - 12.0 °F 74% 30.32 in 10.0 mi Calm Calm - N/A   Clear
9:53 AM 21.0 °F 14.6 °F 14.0 °F 74% 30.32 in 10.0 mi South 4.6 mph - N/A   Clear
10:53 AM 25.0 °F 17.1 °F 14.0 °F 63% 30.32 in 10.0 mi South 6.9 mph - N/A   Clear
11:53 AM 28.9 °F 25.2 °F 15.1 °F 56% 30.30 in 10.0 mi Variable 3.5 mph - N/A   Clear
12:53 PM 32.0 °F 26.4 °F 16.0 °F 52% 30.25 in 10.0 mi ESE 5.8 mph - N/A   Clear
1:53 PM 34.0 °F 31.0 °F 16.0 °F 48% 30.24 in 10.0 mi ESE 3.5 mph - N/A   Clear
2:53 PM 37.0 °F - 17.1 °F 44% 30.23 in 10.0 mi Calm Calm - N/A   Clear
3:53 PM 37.9 °F - 18.0 °F 45% 30.24 in 10.0 mi Calm Calm - N/A   Clear
4:53 PM 35.1 °F - 17.1 °F 48% 30.25 in 10.0 mi Calm Calm - N/A   Clear
5:53 PM 30.9 °F - 17.1 °F 57% 30.27 in 10.0 mi Calm Calm - N/A   Clear
6:53 PM 28.9 °F - 17.1 °F 61% 30.30 in 10.0 mi Calm Calm - N/A   Clear
7:53 PM 30.0 °F 23.2 °F 19.9 °F 66% 30.34 in 10.0 mi WNW 6.9 mph - N/A   Clear
8:53 PM 28.9 °F 21.9 °F 21.0 °F 72% 30.34 in 10.0 mi WSW 6.9 mph - N/A   Clear
9:53 PM 28.9 °F 23.9 °F 19.9 °F 69% 30.32 in 10.0 mi West 4.6 mph - N/A   Clear
10:53 PM 30.0 °F 21.7 °F 21.0 °F 69% 30.33 in 10.0 mi West 9.2 mph - N/A   Clear
11:53 PM 30.0 °F 21.7 °F 19.0 °F 64% 30.35 in 10.0 mi West 9.2 mph - N/A   Clear